DW6279 Weather Reports


time (UTC)temp
C
wind
direction
speed
KPH
gust
KPH
rain 1hr
cm
rain 24hr
cm
rain mn
cm
humidity
%
barometer
mb
20260505101516 15 225 1.6 11.3 0.00 0.00 0.00 62 1012.9
20260505100516 15 203 1.6 9.7 0.00 0.00 0.00 62 1013.0
20260505095516 15 0.0 0.0 0.00 0.00 0.00 62 1012.8
20260505094516 15 0.0 3.2 0.00 0.00 0.00 62 1012.8
20260505093516 16 0.0 4.8 0.00 0.00 0.00 62 1012.8
20260505092516 16 0.0 0.0 0.00 0.00 0.00 63 1012.7
20260505091516 16 0.0 0.0 0.00 0.00 0.00 62 1012.6
20260505090516 16 0.0 0.0 0.00 0.00 0.00 62 1012.5
20260505085516 16 0.0 6.4 0.00 0.00 0.00 62 1012.6
20260505084516 16 180 1.6 9.7 0.00 0.00 0.00 63 1012.7
20260505083516 16 203 1.6 8.0 0.00 0.00 0.00 63 1012.6
20260505082516 16 0.0 8.0 0.00 0.00 0.00 63 1012.7
20260505081516 16 0.0 8.0 0.00 0.00 0.00 62 1012.6
20260505080516 16 203 1.6 8.0 0.00 0.00 0.00 62 1012.6
20260505075516 16 0.0 6.4 0.00 0.00 0.00 62 1012.5
20260505074516 16 203 1.6 12.9 0.00 0.00 0.00 62 1012.5
20260505073536 16 203 1.6 11.3 0.00 0.00 0.00 61 1012.5
20260505072516 16 180 1.6 6.4 0.00 0.00 0.00 61 1012.5
20260505071516 16 180 1.6 8.0 0.00 0.00 0.00 61 1012.4
20260505070515 16 0.0 0.0 0.00 0.00 0.00 60 1012.4
20260505065516 17 0.0 1.6 0.00 0.00 0.00 60 1012.4
20260505064516 17 0.0 8.0 0.00 0.00 0.00 60 1012.4
20260505063516 17 0.0 6.4 0.00 0.00 0.00 61 1012.3
20260505062516 16 0.0 4.8 0.00 0.00 0.00 61 1012.3
20260505061516 16 0.0 3.2 0.00 0.00 0.00 61 1012.3
20260505060515 16 0.0 0.0 0.00 0.00 0.00 62 1012.3
20260505055516 16 0.0 0.0 0.00 0.00 0.00 62 1012.4
20260505054516 17 0.0 0.0 0.00 0.00 0.00 61 1012.4
20260505053516 17 0.0 0.0 0.00 0.00 0.00 60 1012.3
20260505052516 17 0.0 0.0 0.00 0.00 0.00 59 1012.4
20260505051516 17 0.0 0.0 0.00 0.00 0.00 58 1012.5
20260505050516 18 0.0 0.0 0.00 0.00 0.00 57 1012.5
20260505041536 18 0.0 1.6 0.00 0.00 0.00 54 1012.6
20260505040516 18 0.0 0.0 0.00 0.00 0.00 53 1012.5
20260505035517 18 0.0 0.0 0.00 0.00 0.00 52 1012.3
20260505034517 19 0.0 0.0 0.00 0.00 0.00 51 1012.4
20260505033517 19 0.0 1.6 0.00 0.00 0.00 51 1012.3
20260505032517 19 0.0 0.0 0.00 0.00 0.00 50 1012.3
20260505031517 19 0.0 3.2 0.00 0.00 0.00 50 1012.3
20260505030517 20 0.0 4.8 0.00 0.00 0.00 50 1012.3
20260505025517 20 0.0 4.8 0.00 0.00 0.00 50 1012.2
20260505024517 20 0.0 1.6 0.00 0.00 0.00 49 1012.3
20260505023537 20 0.0 4.8 0.00 0.00 0.00 48 1012.2
20260505022516 20 203 1.6 8.0 0.00 0.00 0.00 48 1012.3
20260505021517 20 0.0 4.8 0.00 0.00 0.00 48 1012.3
20260505020517 20 203 1.6 6.4 0.00 0.00 0.00 47 1012.0
20260505015517 20 0.0 0.0 0.00 0.00 0.00 47 1012.1
20260505014516 21 0.0 4.8 0.00 0.00 0.00 46 1012.0
20260505013517 21 0.0 4.8 0.00 0.00 0.00 45 1011.9
20260505012517 21 0.0 0.0 0.00 0.00 0.00 44 1011.7
20260505011517 21 0.0 1.6 0.00 0.00 0.00 44 1011.6
20260505010516 21 0.0 3.2 0.00 0.00 0.00 44 1011.6
20260505005517 22 0.0 3.2 0.00 0.00 0.00 43 1011.6
20260505004517 22 203 1.6 8.0 0.00 0.00 0.00 44 1011.5
20260505003516 22 225 1.6 6.4 0.00 0.00 0.00 42 1011.4
20260505002516 22 225 1.6 8.0 0.00 0.00 0.00 42 1011.4
20260505001517 22 225 1.6 8.0 0.00 0.00 0.00 41 1011.3
20260505000516 22 248 1.6 6.4 0.00 0.00 0.00 41 1011.3
20260504235517 22 270 1.6 9.7 0.00 0.00 0.00 40 1011.2
20260504234517 22 248 4.8 19.3 0.00 0.00 0.00 40 1011.3
20260504233536 22 0.0 1.6 0.00 0.00 0.00 38 1011.2
20260504232516 23 158 1.6 17.7 0.00 0.00 0.00 38 1011.1
20260504231517 23 203 3.2 11.3 0.00 0.00 0.00 37 1011.1
20260504230517 23 225 3.2 16.1 0.00 0.00 0.00 37 1011.0
20260504225517 23 225 1.6 11.3 0.00 0.00 0.00 37 1011.0
20260504224516 23 248 3.2 17.7 0.00 0.00 0.00 36 1011.0
20260504223516 23 225 3.2 19.3 0.00 0.00 0.00 36 1011.2
20260504222517 23 180 4.8 17.7 0.00 0.00 0.00 35 1011.0
20260504221516 23 180 4.8 20.9 0.00 0.00 0.00 36 1011.1
20260504220517 23 203 3.2 14.5 0.00 0.00 0.00 36 1011.1
20260504215516 23 135 6.4 20.9 0.00 0.00 0.00 35 1011.2
20260504214517 24 135 4.8 19.3 0.00 0.00 0.00 34 1011.1
20260504213516 25 158 8.0 22.5 0.00 0.00 0.00 33 1011.1
20260504212516 25 248 1.6 12.9 0.00 0.00 0.00 33 1011.1
20260504211516 25 158 6.4 14.5 0.00 0.00 0.00 32 1011.0
20260504210517 25 135 4.8 19.3 0.00 0.00 0.00 31 1011.1
20260504210432 25 135 1.6 11.3 0.00 0.00 0.00 32 1011.0